Time,TemperatureF,DewpointF,PressureIn,WindDirection,WindDirectionDegrees,WindSpeedMPH,WindSpeedGustMPH,Humidity,HourlyPrecipIn,Conditions,Clouds,dailyrainin,SoftwareType,DateUTC
2013-03-09 00:02:00,31.0,28.0,30.37,WSW,253,0.0,0.0,87,0.00,,,-99.99,,2013-03-09 05:02:00,
2013-03-09 00:12:00,31.0,28.0,30.37,WSW,253,0.0,0.0,87,0.00,,,-99.99,,2013-03-09 05:12:00,
2013-03-09 00:22:00,31.0,28.0,30.37,WSW,253,0.0,1.0,88,0.00,,,-99.99,,2013-03-09 05:22:00,
2013-03-09 00:32:00,31.0,28.0,30.37,WSW,253,0.0,0.0,88,0.00,,,-99.99,,2013-03-09 05:32:00,
2013-03-09 00:43:00,31.0,28.0,30.37,WSW,253,0.0,0.0,88,0.00,,,-99.99,,2013-03-09 05:43:00,
2013-03-09 00:53:00,31.0,28.0,30.37,WSW,253,0.0,0.0,89,0.00,,,-99.99,,2013-03-09 05:53:00,
2013-03-09 01:02:00,31.0,28.0,30.37,WSW,253,0.0,0.0,89,0.00,,,-99.99,,2013-03-09 06:02:00,
2013-03-09 01:11:00,31.0,28.0,30.37,WSW,253,0.0,1.0,89,0.00,,,-99.99,,2013-03-09 06:11:00,
2013-03-09 01:22:00,31.0,28.0,30.37,WSW,253,0.0,1.0,89,0.00,,,-99.99,,2013-03-09 06:22:00,
2013-03-09 01:32:00,31.0,28.0,30.38,WSW,253,0.0,1.0,89,0.00,,,-99.99,,2013-03-09 06:32:00,
2013-03-09 01:42:00,31.0,28.0,30.38,WSW,253,0.0,1.0,89,0.00,,,-99.99,,2013-03-09 06:42:00,
2013-03-09 01:52:00,30.0,27.0,30.38,SW,225,0.0,0.0,90,0.00,,,-99.99,,2013-03-09 06:52:00,
2013-03-09 02:01:00,30.0,27.0,30.37,SW,221,0.0,2.0,90,0.00,,,-99.99,,2013-03-09 07:01:00,
2013-03-09 02:11:00,30.0,27.0,30.37,SW,221,0.0,2.0,90,0.00,,,-99.99,,2013-03-09 07:11:00,
2013-03-09 02:21:00,30.0,27.0,30.37,SW,215,0.0,1.0,90,0.00,,,-99.99,,2013-03-09 07:21:00,
2013-03-09 02:32:00,30.0,27.0,30.37,SSW,192,0.0,2.0,90,0.00,,,-99.99,,2013-03-09 07:32:00,
2013-03-09 02:42:00,30.0,27.0,30.37,SSW,192,0.0,2.0,90,0.00,,,-99.99,,2013-03-09 07:42:00,
2013-03-09 02:52:00,31.0,29.0,30.37,SSW,213,0.0,1.0,91,0.00,,,-99.99,,2013-03-09 07:52:00,
2013-03-09 03:01:00,31.0,29.0,30.37,SSW,213,0.0,0.0,91,0.00,,,-99.99,,2013-03-09 08:01:00,
2013-03-09 03:11:00,31.0,29.0,30.37,SSW,213,0.0,0.0,91,0.00,,,-99.99,,2013-03-09 08:11:00,
2013-03-09 03:22:00,31.0,29.0,30.36,SW,217,0.0,0.0,91,0.00,,,-99.99,,2013-03-09 08:22:00,
2013-03-09 03:32:00,31.0,29.0,30.35,SW,217,0.0,0.0,91,0.00,,,-99.99,,2013-03-09 08:32:00,
2013-03-09 03:42:00,31.0,29.0,30.35,SW,217,0.0,0.0,91,0.00,,,-99.99,,2013-03-09 08:42:00,
2013-03-09 03:52:00,31.0,29.0,30.35,SW,217,0.0,0.0,92,0.00,,,-99.99,,2013-03-09 08:52:00,
2013-03-09 04:02:00,31.0,29.0,30.34,SW,217,0.0,0.0,92,0.00,,,-99.99,,2013-03-09 09:02:00,
2013-03-09 04:12:00,31.0,29.0,30.34,SW,217,0.0,0.0,92,0.00,,,-99.99,,2013-03-09 09:12:00,
2013-03-09 04:21:00,31.0,29.0,30.35,SW,217,0.0,0.0,92,0.00,,,-99.99,,2013-03-09 09:21:00,
2013-03-09 04:32:00,31.0,29.0,30.34,SW,217,0.0,0.0,92,0.00,,,-99.99,,2013-03-09 09:32:00,
2013-03-09 04:42:00,31.0,29.0,30.34,SW,217,0.0,0.0,92,0.00,,,-99.99,,2013-03-09 09:42:00,
2013-03-09 04:52:00,30.0,28.0,30.34,SW,215,0.0,0.0,92,0.00,,,-99.99,,2013-03-09 09:52:00,
2013-03-09 05:01:00,30.0,28.0,30.35,SW,215,0.0,0.0,92,0.00,,,-99.99,,2013-03-09 10:01:00,
2013-03-09 05:11:00,30.0,28.0,30.35,SW,215,0.0,0.0,92,0.00,,,-99.99,,2013-03-09 10:11:00,
2013-03-09 05:22:00,29.0,27.0,30.35,SW,215,0.0,0.0,92,0.00,,,-99.99,,2013-03-09 10:22:00,
2013-03-09 05:32:00,29.0,27.0,30.35,SW,215,0.0,0.0,92,0.00,,,-99.99,,2013-03-09 10:32:00,
2013-03-09 05:42:00,29.0,27.0,30.35,SW,215,0.0,0.0,92,0.00,,,-99.99,,2013-03-09 10:42:00,
2013-03-09 05:52:00,29.0,27.0,30.35,SW,215,1.0,1.0,92,0.00,,,-99.99,,2013-03-09 10:52:00,
2013-03-09 06:01:00,29.0,27.0,30.35,SW,215,0.0,0.0,93,0.00,,,-99.99,,2013-03-09 11:01:00,
2013-03-09 06:11:00,29.0,27.0,30.35,SW,215,0.0,0.0,93,0.00,,,-99.99,,2013-03-09 11:11:00,
2013-03-09 06:21:00,28.0,26.0,30.36,SSW,192,1.0,2.0,92,0.00,,,-99.99,,2013-03-09 11:21:00,
2013-03-09 06:32:00,28.0,26.0,30.36,SSW,199,2.0,2.0,93,0.00,,,-99.99,,2013-03-09 11:32:00,
2013-03-09 06:42:00,28.0,26.0,30.36,SSW,199,2.0,2.0,93,0.00,,,-99.99,,2013-03-09 11:42:00,
2013-03-09 06:52:00,28.0,26.0,30.37,South,188,1.0,3.0,93,0.00,,,-99.99,,2013-03-09 11:52:00,
2013-03-09 07:02:00,28.0,26.0,30.37,South,188,1.0,3.0,93,0.00,,,-99.99,,2013-03-09 12:02:00,
2013-03-09 07:11:00,28.0,26.0,30.37,South,188,1.0,3.0,93,0.00,,,-99.99,,2013-03-09 12:11:00,
2013-03-09 07:22:00,28.0,26.0,30.37,South,189,0.0,2.0,93,0.00,,,-99.99,,2013-03-09 12:22:00,
2013-03-09 07:32:00,28.0,26.0,30.37,South,179,2.0,3.0,93,0.00,,,-99.99,,2013-03-09 12:32:00,
2013-03-09 07:42:00,28.0,26.0,30.37,South,179,2.0,3.0,93,0.00,,,-99.99,,2013-03-09 12:42:00,
2013-03-09 07:52:00,29.0,27.0,30.37,SW,217,0.0,4.0,93,0.00,,,0.03,,2013-03-09 12:52:00,
2013-03-09 08:02:00,29.0,27.0,30.37,SSW,211,0.0,4.0,93,0.00,,,0.03,,2013-03-09 13:02:00,
2013-03-09 08:11:00,29.0,27.0,30.37,SSW,211,0.0,4.0,93,0.00,,,0.03,,2013-03-09 13:11:00,
2013-03-09 08:21:00,30.0,28.0,30.38,SSW,209,2.0,5.0,93,0.00,,,0.03,,2013-03-09 13:21:00,
2013-03-09 08:32:00,31.0,29.0,30.38,SW,217,3.0,6.0,93,0.00,,,0.03,,2013-03-09 13:32:00,
2013-03-09 08:42:00,31.0,29.0,30.38,SW,217,3.0,6.0,93,0.00,,,0.03,,2013-03-09 13:42:00,
2013-03-09 08:52:00,32.0,30.0,30.39,WSW,257,2.0,6.0,93,0.00,,,0.03,,2013-03-09 13:52:00,
2013-03-09 09:01:00,33.0,31.0,30.39,SW,219,2.0,6.0,92,0.00,,,0.03,,2013-03-09 14:01:00,
2013-03-09 09:11:00,33.0,31.0,30.39,SW,219,2.0,6.0,92,0.00,,,0.03,,2013-03-09 14:11:00,
2013-03-09 09:21:00,34.0,32.0,30.40,West,260,2.0,7.0,91,0.00,,,0.03,,2013-03-09 14:21:00,
2013-03-09 09:32:00,34.0,31.0,30.40,SSW,206,1.0,4.0,90,0.00,,,0.03,,2013-03-09 14:32:00,
2013-03-09 09:42:00,34.0,31.0,30.40,SSW,206,1.0,4.0,90,0.00,,,0.03,,2013-03-09 14:42:00,
2013-03-09 09:52:00,35.0,32.0,30.38,SSW,194,4.0,6.0,89,0.00,,,0.02,,2013-03-09 14:52:00,
2013-03-09 10:02:00,35.0,32.0,30.38,SSW,209,2.0,6.0,89,0.00,,,0.02,,2013-03-09 15:02:00,
2013-03-09 10:12:00,35.0,32.0,30.38,SSW,209,2.0,6.0,89,0.00,,,0.02,,2013-03-09 15:12:00,
2013-03-09 10:22:00,36.0,33.0,30.38,SSE,168,2.0,5.0,89,0.00,,,0.02,,2013-03-09 15:22:00,
2013-03-09 10:32:00,36.0,33.0,30.38,South,188,1.0,5.0,88,0.00,,,0.02,,2013-03-09 15:32:00,
2013-03-09 10:42:00,36.0,33.0,30.38,South,188,1.0,5.0,88,0.00,,,0.02,,2013-03-09 15:42:00,
2013-03-09 10:52:00,36.0,33.0,30.37,South,183,5.0,9.0,87,0.00,,,0.00,,2013-03-09 15:52:00,
2013-03-09 11:01:00,36.0,33.0,30.37,SW,228,1.0,9.0,87,0.00,,,0.00,,2013-03-09 16:01:00,
2013-03-09 11:11:00,36.0,33.0,30.37,SW,228,1.0,9.0,87,0.00,,,0.00,,2013-03-09 16:11:00,
2013-03-09 11:21:00,36.0,33.0,30.37,SSW,202,2.0,6.0,87,0.00,,,0.00,,2013-03-09 16:21:00,
2013-03-09 11:32:00,37.0,34.0,30.37,SW,227,0.0,5.0,87,0.00,,,0.00,,2013-03-09 16:32:00,
2013-03-09 11:42:00,37.0,34.0,30.37,SW,227,0.0,5.0,87,0.00,,,0.00,,2013-03-09 16:42:00,
2013-03-09 11:52:00,38.0,34.0,30.36,South,184,1.0,4.0,85,0.00,,,0.00,,2013-03-09 16:52:00,
2013-03-09 12:01:00,39.0,34.0,30.35,SSE,167,1.0,4.0,82,0.00,,,0.00,,2013-03-09 17:01:00,
2013-03-09 12:11:00,39.0,34.0,30.35,SSE,167,1.0,4.0,82,0.00,,,0.00,,2013-03-09 17:11:00,
2013-03-09 12:22:00,40.0,35.0,30.35,SSE,148,0.0,4.0,81,0.00,,,0.00,,2013-03-09 17:22:00,
2013-03-09 12:32:00,41.0,34.0,30.35,SSW,204,2.0,6.0,77,0.00,,,0.00,,2013-03-09 17:32:00,
2013-03-09 12:42:00,41.0,34.0,30.35,SSW,204,2.0,6.0,77,0.00,,,0.00,,2013-03-09 17:42:00,
2013-03-09 12:52:00,42.0,33.0,30.34,SSW,207,0.0,5.0,71,0.00,,,0.00,,2013-03-09 17:52:00,
2013-03-09 13:02:00,43.0,35.0,30.34,East,100,0.0,1.0,73,0.00,,,0.00,,2013-03-09 18:02:00,
2013-03-09 13:11:00,43.0,35.0,30.34,East,100,0.0,1.0,73,0.00,,,0.00,,2013-03-09 18:11:00,
2013-03-09 13:21:00,44.0,33.0,30.34,ENE,60,1.0,7.0,66,0.00,,,0.00,,2013-03-09 18:21:00,
2013-03-09 13:32:00,45.0,35.0,30.33,SE,143,0.0,1.0,67,0.00,,,0.00,,2013-03-09 18:32:00,
2013-03-09 13:42:00,45.0,35.0,30.33,SE,143,0.0,1.0,67,0.00,,,0.00,,2013-03-09 18:42:00,
2013-03-09 13:52:00,45.0,34.0,30.32,NE,48,2.0,5.0,66,0.00,,,0.00,,2013-03-09 18:52:00,
2013-03-09 14:01:00,45.0,35.0,30.32,NNE,26,1.0,5.0,67,0.00,,,0.00,,2013-03-09 19:01:00,
2013-03-09 14:12:00,45.0,35.0,30.32,NNE,26,1.0,5.0,67,0.00,,,0.00,,2013-03-09 19:12:00,
2013-03-09 14:22:00,46.0,34.0,30.31,South,183,1.0,5.0,62,0.00,,,0.00,,2013-03-09 19:22:00,
2013-03-09 14:32:00,46.0,34.0,30.31,SE,138,0.0,6.0,63,0.00,,,0.00,,2013-03-09 19:32:00,
2013-03-09 14:42:00,46.0,34.0,30.31,SE,138,0.0,6.0,63,0.00,,,0.00,,2013-03-09 19:42:00,
2013-03-09 14:52:00,46.0,34.0,30.30,SE,135,0.0,5.0,62,0.00,,,0.00,,2013-03-09 19:52:00,
2013-03-09 15:01:00,46.0,34.0,30.29,SW,225,1.0,3.0,62,0.00,,,0.00,,2013-03-09 20:01:00,
2013-03-09 15:11:00,46.0,34.0,30.29,SW,225,1.0,3.0,62,0.00,,,0.00,,2013-03-09 20:11:00,
2013-03-09 15:22:00,47.0,34.0,30.29,ENE,59,1.0,6.0,61,0.00,,,0.00,,2013-03-09 20:22:00,
2013-03-09 15:32:00,47.0,37.0,30.28,North,5,4.0,6.0,67,0.00,,,0.00,,2013-03-09 20:32:00,
2013-03-09 15:42:00,47.0,37.0,30.28,North,5,4.0,6.0,67,0.00,,,0.00,,2013-03-09 20:42:00,
2013-03-09 15:52:00,45.0,38.0,30.28,ENE,58,6.0,7.0,77,0.00,,,0.00,,2013-03-09 20:52:00,
2013-03-09 16:02:00,45.0,38.0,30.27,NE,44,4.0,8.0,76,0.00,,,0.00,,2013-03-09 21:02:00,
2013-03-09 16:12:00,45.0,38.0,30.27,NE,44,4.0,8.0,76,0.00,,,0.00,,2013-03-09 21:12:00,
2013-03-09 16:22:00,44.0,38.0,30.27,NNE,32,3.0,7.0,78,0.00,,,0.00,,2013-03-09 21:22:00,
2013-03-09 16:32:00,44.0,38.0,30.27,NE,53,3.0,7.0,78,0.00,,,0.00,,2013-03-09 21:32:00,
2013-03-09 16:42:00,44.0,38.0,30.27,NE,53,3.0,7.0,78,0.00,,,0.00,,2013-03-09 21:42:00,
2013-03-09 16:52:00,44.0,38.0,30.27,NNE,17,2.0,5.0,78,0.00,,,0.00,,2013-03-09 21:52:00,
2013-03-09 17:01:00,44.0,38.0,30.27,NE,36,4.0,6.0,78,0.00,,,0.00,,2013-03-09 22:01:00,
2013-03-09 17:11:00,44.0,38.0,30.27,NE,36,4.0,6.0,78,0.00,,,0.00,,2013-03-09 22:11:00,
2013-03-09 17:22:00,43.0,37.0,30.27,NE,36,3.0,6.0,79,0.00,,,0.00,,2013-03-09 22:22:00,
2013-03-09 17:32:00,43.0,37.0,30.26,ENE,57,5.0,6.0,79,0.00,,,0.00,,2013-03-09 22:32:00,
2013-03-09 17:42:00,43.0,37.0,30.26,ENE,57,5.0,6.0,79,0.00,,,0.00,,2013-03-09 22:42:00,
2013-03-09 17:52:00,42.0,36.0,30.26,NE,39,4.0,6.0,80,0.00,,,0.00,,2013-03-09 22:52:00,
2013-03-09 18:01:00,41.0,35.0,30.26,NE,51,3.0,5.0,80,0.00,,,0.00,,2013-03-09 23:01:00,
2013-03-09 18:11:00,41.0,35.0,30.26,NE,51,3.0,5.0,80,0.00,,,0.00,,2013-03-09 23:11:00,
2013-03-09 18:22:00,40.0,34.0,30.25,ENE,62,2.0,6.0,79,0.00,,,0.00,,2013-03-09 23:22:00,
2013-03-09 18:32:00,40.0,34.0,30.25,NE,53,1.0,4.0,80,0.00,,,0.00,,2013-03-09 23:32:00,
2013-03-09 18:42:00,40.0,34.0,30.25,NE,53,1.0,4.0,80,0.00,,,0.00,,2013-03-09 23:42:00,
2013-03-09 18:52:00,39.0,34.0,30.26,NE,55,0.0,2.0,82,0.00,,,0.00,,2013-03-09 23:52:00,
2013-03-09 19:02:00,38.0,33.0,30.26,NE,55,0.0,3.0,83,0.00,,,0.00,,2013-03-10 00:02:00,
2013-03-09 19:11:00,38.0,33.0,30.26,NE,55,0.0,3.0,83,0.00,,,0.00,,2013-03-10 00:11:00,
2013-03-09 19:22:00,37.0,33.0,30.25,NE,55,0.0,0.0,84,0.00,,,0.00,,2013-03-10 00:22:00,
2013-03-09 19:32:00,37.0,33.0,30.25,NE,55,0.0,0.0,85,0.00,,,0.00,,2013-03-10 00:32:00,
2013-03-09 19:42:00,37.0,33.0,30.25,NE,55,0.0,0.0,85,0.00,,,0.00,,2013-03-10 00:42:00,
2013-03-09 19:52:00,36.0,32.0,30.24,NE,55,0.0,0.0,86,0.00,,,0.00,,2013-03-10 00:52:00,
2013-03-09 20:01:00,36.0,33.0,30.24,NE,55,0.0,0.0,87,0.00,,,0.00,,2013-03-10 01:01:00,
2013-03-09 20:11:00,36.0,33.0,30.24,NE,55,0.0,0.0,87,0.00,,,0.00,,2013-03-10 01:11:00,
2013-03-09 20:21:00,35.0,32.0,30.23,East,100,0.0,2.0,88,0.00,,,0.00,,2013-03-10 01:21:00,
2013-03-09 20:32:00,35.0,32.0,30.22,ESE,103,0.0,2.0,88,0.00,,,0.00,,2013-03-10 01:32:00,
2013-03-09 20:42:00,35.0,32.0,30.22,ESE,103,0.0,2.0,88,0.00,,,0.00,,2013-03-10 01:42:00,
2013-03-09 20:52:00,34.0,31.0,30.22,ESE,103,0.0,0.0,88,0.00,,,0.00,,2013-03-10 01:52:00,
2013-03-09 21:01:00,34.0,31.0,30.21,ESE,103,0.0,0.0,89,0.00,,,0.00,,2013-03-10 02:01:00,
2013-03-09 21:11:00,34.0,31.0,30.21,ESE,103,0.0,0.0,89,0.00,,,0.00,,2013-03-10 02:11:00,
2013-03-09 21:22:00,36.0,33.0,30.22,SE,139,2.0,5.0,88,0.00,,,0.00,,2013-03-10 02:22:00,
2013-03-09 21:32:00,37.0,33.0,30.21,SSE,160,4.0,5.0,85,0.00,,,0.00,,2013-03-10 02:32:00,
2013-03-09 21:42:00,37.0,33.0,30.21,SSE,160,4.0,5.0,85,0.00,,,0.00,,2013-03-10 02:42:00,
2013-03-09 21:52:00,38.0,33.0,30.20,SE,134,2.0,9.0,81,0.00,,,0.00,,2013-03-10 02:52:00,
2013-03-09 22:02:00,38.0,32.0,30.19,ESE,114,3.0,10.0,79,0.00,,,0.00,,2013-03-10 03:02:00,
2013-03-09 22:12:00,38.0,32.0,30.19,SE,145,3.0,9.0,78,0.00,,,0.00,,2013-03-10 03:12:00,
2013-03-09 22:22:00,38.0,32.0,30.19,SE,145,3.0,9.0,78,0.00,,,0.00,,2013-03-10 03:22:00,
2013-03-09 22:32:00,38.0,32.0,30.19,SSE,153,4.0,10.0,78,0.00,,,0.00,,2013-03-10 03:32:00,
2013-03-09 22:42:00,38.0,32.0,30.19,SSE,153,4.0,10.0,78,0.00,,,0.00,,2013-03-10 03:42:00,
2013-03-09 22:52:00,38.0,32.0,30.18,SSE,159,3.0,8.0,78,0.00,,,0.00,,2013-03-10 03:52:00,
2013-03-09 23:01:00,37.0,31.0,30.18,SE,144,1.0,7.0,78,0.00,,,0.00,,2013-03-10 04:01:00,
2013-03-09 23:11:00,37.0,31.0,30.18,SE,144,1.0,7.0,78,0.00,,,0.00,,2013-03-10 04:11:00,
2013-03-09 23:21:00,37.0,31.0,30.18,South,178,0.0,6.0,79,0.00,,,0.00,,2013-03-10 04:21:00,
2013-03-09 23:32:00,37.0,31.0,30.17,SSE,147,0.0,6.0,78,0.00,,,0.00,,2013-03-10 04:32:00,
2013-03-09 23:42:00,37.0,31.0,30.17,SSE,147,0.0,6.0,78,0.00,,,0.00,,2013-03-10 04:42:00,
2013-03-09 23:52:00,38.0,31.0,30.16,SSE,151,4.0,9.0,77,0.00,,,0.00,,2013-03-10 04:52:00,